EW8974 Weather Reports


Display with metric or nautical units.
time (UTC)temp
F
wind
direction
speed
MPH
gust
MPH
rain 1hr
in
rain 24hr
in
rain mn
in
humidity
%
barometer
mb
20260509160516 81 190 2.0 7.0 0.00 0.06 0.00 56 1004.6
20260509160019 81 8 2.0 8.0 0.00 0.06 0.00 59 1004.6
20260509155513 81 170 2.0 8.0 0.00 0.06 0.00 60 1004.7
20260509155012 80 295 1.0 5.0 0.00 0.06 0.00 62 1004.7
20260509154515 80 288 2.0 5.0 0.00 0.06 0.00 63 1004.8
20260509154011 80 58 2.0 9.0 0.00 0.06 0.00 63 1004.7
20260509153509 79 49 3.0 9.0 0.00 0.06 0.00 61 1004.8
20260509153022 79 335 2.0 8.0 0.00 0.06 0.00 63 1004.7
20260509152508 79 72 3.0 8.0 0.00 0.06 0.00 63 1004.7
20260509152012 79 323 1.0 5.0 0.00 0.06 0.00 67 1004.6
20260509151505 78 335 1.0 7.0 0.00 0.06 0.00 68 1004.5
20260509151004 77 96 2.0 7.0 0.00 0.06 0.00 70 1004.4
20260509150503 77 41 1.0 5.0 0.00 0.06 0.00 72 1004.5
20260509150001 76 339 1.0 4.0 0.00 0.06 0.00 74 1004.5
20260509145600 76 307 1.0 6.0 0.00 0.06 0.00 76 1004.6
20260509145058 75 316 1.0 6.0 0.00 0.06 0.00 77 1004.6
20260509144608 74 323 2.0 5.0 0.00 0.06 0.00 78 1004.6
20260509144058 74 30 1.0 5.0 0.00 0.06 0.00 79 1004.7
20260509143554 73 328 1.0 5.0 0.00 0.06 0.00 79 1004.6
20260509143116 73 316 2.0 5.0 0.00 0.06 0.00 79 1004.7
20260509142553 73 23 3.0 6.0 0.00 0.06 0.00 80 1004.7
20260509142053 73 255 1.0 6.0 0.00 0.06 0.00 81 1004.6
20260509141551 73 123 1.0 5.0 0.00 0.06 0.00 81 1004.7
20260509141051 72 332 2.0 5.0 0.00 0.06 0.00 81 1004.8
20260509140549 72 326 1.0 6.0 0.00 0.06 0.00 82 1004.8
20260509140059 72 89 2.0 7.0 0.00 0.06 0.00 82 1004.7
20260509135548 72 63 0.0 7.0 0.00 0.06 0.00 83 1004.6
20260509135050 72 11 0.0 3.0 0.00 0.06 0.00 83 1004.7
20260509134605 71 350 0.0 4.0 0.00 0.06 0.00 84 1004.5
20260509134044 71 77 1.0 6.0 0.00 0.06 0.00 85 1004.5
20260509133546 71 290 2.0 6.0 0.00 0.06 0.00 85 1004.5
20260509133048 71 317 1.0 5.0 0.00 0.06 0.00 86 1004.4
20260509132543 71 266 0.0 6.0 0.00 0.06 0.00 87 1004.4
20260509132046 70 304 1.0 6.0 0.00 0.06 0.00 88 1004.4
20260509131540 70 281 2.0 6.0 0.00 0.06 0.00 90 1004.3
20260509131039 69 352 1.0 3.0 0.00 0.06 0.00 92 1004.1
20260509130539 69 340 0.0 2.0 0.00 0.06 0.00 93 1004.1
20260509130052 68 312 0.0 0.0 0.00 0.06 0.00 93 1003.9
20260509125537 68 312 0.0 0.0 0.00 0.06 0.00 93 1004.0
20260509125037 67 312 0.0 0.0 0.00 0.06 0.00 93 1004.0
20260509124538 67 312 0.0 0.0 0.00 0.06 0.00 93 1004.0
20260509124037 67 312 0.0 0.0 0.00 0.06 0.00 93 1003.9
20260509123538 67 312 0.0 0.0 0.00 0.06 0.00 93 1004.0
20260509123045 66 312 0.0 0.0 0.00 0.06 0.00 92 1004.0
20260509122537 66 312 0.0 0.0 0.00 0.06 0.00 92 1004.0
20260509122037 66 312 0.0 0.0 0.00 0.06 0.00 92 1004.0
20260509121544 66 312 0.0 0.0 0.00 0.06 0.00 91 1003.9
20260509121037 67 312 0.0 0.0 0.00 0.06 0.00 91 1004.1
20260509120537 67 312 0.0 0.0 0.00 0.06 0.00 91 1004.1
20260509120035 67 312 0.0 0.0 0.00 0.06 0.00 91 1004.1
20260509115535 68 312 0.0 0.0 0.00 0.06 0.00 91 1004.1
20260509115036 68 312 0.0 0.0 0.00 0.06 0.00 91 1004.2
20260509114538 68 312 0.0 1.0 0.00 0.06 0.00 91 1004.2
20260509114034 68 312 0.0 2.0 0.00 0.06 0.00 91 1004.2
20260509113537 69 312 0.0 2.0 0.00 0.06 0.00 91 1004.1
20260509113038 69 309 0.0 2.0 0.00 0.06 0.00 91 1004.1
20260509112536 69 309 0.0 2.0 0.00 0.06 0.00 91 1004.1
20260509112035 69 316 0.0 3.0 0.00 0.06 0.00 91 1004.0
20260509111540 69 317 1.0 3.0 0.00 0.06 0.00 91 1003.9
20260509111033 69 328 0.0 3.0 0.00 0.06 0.00 92 1004.0
20260509110533 69 305 0.0 5.0 0.00 0.06 0.00 92 1003.8
20260509110034 69 311 0.0 5.0 0.00 0.06 0.00 92 1003.9
20260509105531 69 242 0.0 4.0 0.00 0.06 0.00 92 1003.9
20260509105030 69 338 1.0 6.0 0.00 0.06 0.00 93 1003.9
20260509104540 68 338 2.0 6.0 0.00 0.06 0.00 93 1003.9
20260509104029 68 358 1.0 7.0 0.00 0.06 0.00 93 1003.9
20260509103529 68 310 4.0 7.0 0.00 0.06 0.00 93 1003.8
20260509103028 68 17 2.0 5.0 0.00 0.06 0.00 93 1003.5
20260509102532 68 243 0.0 4.0 0.00 0.06 0.00 93 1002.4
20260509102028 68 336 0.0 6.0 0.00 0.06 0.00 93 1002.3
20260509101536 68 270 2.0 8.0 0.00 0.06 0.00 93 1002.1
20260509101031 68 236 3.0 8.0 0.00 0.06 0.00 93 1001.9
20260509100531 68 237 2.0 8.0 0.00 0.06 0.00 93 1001.8
20260509100028 68 225 3.0 7.0 0.00 0.06 0.00 93 1001.7
20260509095528 68 233 3.0 9.0 0.00 0.06 0.00 93 1001.7
20260509095027 68 175 2.0 9.0 0.00 0.06 0.00 93 1001.6
20260509094535 68 210 3.0 10.0 0.00 0.06 0.00 93 1001.4
20260509094026 68 228 4.0 10.0 0.00 0.06 0.00 93 1001.5
20260509093526 68 240 3.0 10.0 0.00 0.06 0.00 93 1001.7
20260509093026 68 238 3.0 9.0 0.00 0.06 0.00 93 1001.8
20260509092525 68 226 3.0 9.0 0.00 0.06 0.00 93 1001.8
20260509092024 67 180 3.0 9.0 0.00 0.06 0.00 92 1001.6
20260509091536 67 215 3.0 8.0 0.00 0.06 0.00 92 1001.8
20260509091024 67 236 3.0 10.0 0.00 0.06 0.00 92 1001.7
20260509090524 67 245 3.0 10.0 0.00 0.06 0.00 92 1001.9
20260509090023 67 195 3.0 9.0 0.00 0.06 0.00 92 1002.1
20260509085519 67 161 3.0 9.0 0.00 0.06 0.00 93 1002.4
20260509085019 67 237 3.0 6.0 0.00 0.06 0.00 92 1002.4
20260509084522 67 237 1.0 4.0 0.00 0.06 0.00 92 1002.5
20260509084018 67 272 0.0 2.0 0.00 0.06 0.00 92 1002.9
20260509083516 67 231 0.0 1.0 0.00 0.06 0.00 92 1002.9
20260509083015 67 231 0.0 3.0 0.00 0.06 0.00 92 1003.2
20260509082515 68 231 1.0 3.0 0.00 0.06 0.00 92 1003.5
20260509082015 68 230 0.0 4.0 0.00 0.06 0.00 92 1003.6
20260509081523 68 180 0.0 6.0 0.00 0.06 0.00 92 1004.2
20260509081014 68 205 2.0 7.0 0.00 0.06 0.00 92 1004.2
20260509080511 68 210 1.0 8.0 0.00 0.06 0.00 92 1004.4
20260509080012 68 233 2.0 8.0 0.00 0.06 0.00 92 1004.6
20260509075511 68 192 1.0 4.0 0.00 0.06 0.00 92 1005.0
20260509075010 68 272 0.0 4.0 0.00 0.06 0.00 92 1005.5
20260509074510 68 302 1.0 4.0 0.00 0.06 0.00 92 1005.5
20260509074009 68 255 1.0 4.0 0.00 0.06 0.00 92 1005.4
20260509073509 68 276 1.0 3.0 0.00 0.06 0.00 92 1005.2
20260509073011 68 325 0.0 2.0 0.00 0.06 0.00 92 1005.4
20260509072509 68 286 0.0 2.0 0.00 0.06 0.00 92 1005.4
20260509072009 68 303 0.0 1.0 0.00 0.06 0.00 92 1005.2
20260509071509 68 303 0.0 2.0 0.00 0.06 0.00 93 1005.3
20260509071008 68 290 0.0 2.0 0.00 0.06 0.00 93 1005.4
20260509070508 68 285 0.0 1.0 0.00 0.06 0.00 93 1005.4
20260509070011 68 34 0.0 1.0 0.00 0.06 0.00 93 1005.2
20260509065509 68 34 0.0 1.0 0.00 0.06 0.00 93 1005.4
20260509065006 68 34 0.0 1.0 0.00 0.06 0.00 93 1005.4
20260509064506 67 34 0.0 1.0 0.00 0.06 0.00 93 1005.4
20260509064008 67 34 0.0 2.0 0.00 0.06 0.00 93 1005.5
20260509063505 67 41 0.0 2.0 0.00 0.06 0.00 93 1005.5
20260509063013 67 51 0.0 1.0 0.00 0.06 0.00 93 1005.2
20260509062505 67 51 0.0 2.0 0.00 0.06 0.00 93 1005.4
20260509062008 67 51 0.0 2.0 0.00 0.06 0.00 92 1005.2
20260509061505 67 77 0.0 1.0 0.00 0.06 0.00 92 1005.4
20260509061005 67 97 0.0 1.0 0.00 0.06 0.00 92 1005.4
20260509060502 67 173 0.0 1.0 0.00 0.06 0.00 92 1005.2
20260509060001 67 175 0.0 0.0 0.00 0.06 0.00 92 1005.0
20260509055501 67 175 0.0 0.0 0.00 0.06 0.00 92 1004.8
20260509055100 67 175 0.0 0.0 0.00 0.06 0.00 92 1004.7
20260509054604 67 175 0.0 0.0 0.00 0.06 0.00 92 1004.6
20260509054059 67 175 0.0 0.0 0.00 0.06 0.00 92 1004.7
20260509053559 67 175 0.0 0.0 0.00 0.06 0.00 92 1004.7
20260509053110 68 175 0.0 0.0 0.00 0.06 0.00 92 1004.9
20260509052602 68 175 0.0 0.0 0.00 0.06 0.00 92 1004.7
20260509051559 68 175 0.0 4.0 0.00 0.06 0.00 92 1004.6
20260509051056 68 224 1.0 3.0 0.00 0.06 0.00 92 1004.6
20260509050558 67 254 0.0 1.0 0.00 0.06 0.00 92 1004.6
20260509050054 67 260 0.0 1.0 0.00 0.06 0.00 91 1004.7
20260509045553 67 260 0.0 0.0 0.00 0.06 0.06 91 1004.7
20260509045053 67 260 0.0 0.0 0.00 0.06 0.06 91 1004.9
20260509044553 68 260 0.0 0.0 0.00 0.06 0.06 90 1005.1
20260509044054 68 260 0.0 0.0 0.00 0.06 0.06 90 1005.1
20260509043552 68 260 0.0 0.0 0.00 0.06 0.06 90 1005.1
20260509043054 68 260 0.0 1.0 0.00 0.06 0.06 90 1005.0
20260509042552 68 260 0.0 1.0 0.00 0.06 0.06 89 1004.9
20260509042052 68 260 0.0 0.0 0.00 0.06 0.06 89 1004.7
20260509041616 69 260 0.0 0.0 0.00 0.06 0.06 88 1004.8
20260509041052 69 260 0.0 0.0 0.00 0.06 0.06 88 1004.7
20260509040552 69 260 0.0 0.0 0.00 0.06 0.06 88 1004.7
20260509040051 70 260 0.0 0.0 0.00 0.06 0.06 87 1004.6
20260509035551 70 260 0.0 0.0 0.00 0.06 0.06 87 1004.6
20260509035051 70 260 0.0 0.0 0.00 0.06 0.06 88 1004.6
20260509034552 70 260 0.0 1.0 0.00 0.06 0.06 87 1004.5
20260509034051 71 260 0.0 1.0 0.00 0.06 0.06 87 1004.6
20260509033553 71 260 0.0 1.0 0.00 0.06 0.06 87 1004.6
20260509033050 71 260 0.0 1.0 0.00 0.06 0.06 87 1004.4
20260509032550 71 260 0.0 1.0 0.00 0.06 0.06 87 1004.3
20260509032052 71 260 0.0 1.0 0.00 0.06 0.06 87 1004.2
20260509031552 71 260 0.0 1.0 0.00 0.06 0.06 87 1004.1
20260509031050 71 260 0.0 1.0 0.00 0.06 0.06 87 1004.1
20260509030550 71 260 0.0 1.0 0.00 0.06 0.06 87 1004.0
20260509030049 71 260 0.0 2.0 0.00 0.06 0.06 87 1003.9
20260509025548 70 248 0.0 2.0 0.00 0.06 0.06 87 1003.6
20260509025048 70 234 0.0 1.0 0.00 0.06 0.06 87 1003.8
20260509024548 70 234 0.0 0.0 0.00 0.06 0.06 87 1003.9
20260509024049 70 234 0.0 0.0 0.00 0.06 0.06 86 1003.9
20260509023548 71 234 0.0 0.0 0.00 0.06 0.06 86 1003.9
20260509023105 71 234 0.0 0.0 0.00 0.06 0.06 86 1003.9
20260509022548 71 234 0.0 0.0 0.00 0.06 0.06 86 1003.8
20260509022048 71 234 0.0 1.0 0.00 0.06 0.06 86 1003.8
20260509021548 71 234 0.0 1.0 0.00 0.06 0.06 86 1003.6
20260509021047 71 234 0.0 1.0 0.00 0.06 0.06 86 1003.5
20260509020547 71 234 0.0 1.0 0.00 0.06 0.06 85 1003.5
20260509020054 71 234 0.0 0.0 0.00 0.06 0.06 85 1003.5
20260509015546 71 234 0.0 0.0 0.00 0.06 0.06 85 1003.4
20260509015046 71 234 0.0 0.0 0.00 0.06 0.06 84 1003.3
20260509014546 72 234 0.0 0.0 0.00 0.06 0.06 84 1003.3
20260509014046 72 234 0.0 1.0 0.00 0.06 0.06 84 1003.3
20260509013546 72 234 0.0 1.0 0.00 0.06 0.06 83 1003.4
20260509013051 72 234 0.0 1.0 0.00 0.06 0.06 83 1003.3
20260509012545 72 234 0.0 2.0 0.00 0.06 0.06 83 1003.2
20260509012046 72 234 0.0 3.0 0.00 0.06 0.06 82 1003.3
20260509011545 72 240 0.0 3.0 0.00 0.06 0.06 82 1003.3
20260509011044 73 250 0.0 3.0 0.00 0.06 0.06 82 1003.2
20260509010544 73 185 0.0 5.0 0.00 0.06 0.06 81 1003.1
20260509010044 73 234 0.0 5.0 0.00 0.06 0.06 81 1003.1
20260509005543 73 186 0.0 4.0 0.00 0.06 0.06 80 1002.8
20260509005043 74 237 1.0 4.0 0.00 0.06 0.06 79 1002.7
20260509004544 74 244 2.0 4.0 0.00 0.06 0.06 78 1002.7
20260509004043 75 195 0.0 2.0 0.00 0.06 0.06 78 1002.6
20260509003543 75 265 0.0 0.0 0.00 0.06 0.06 77 1002.7
20260509003043 76 266 0.0 1.0 0.00 0.06 0.06 75 1002.7
20260509002543 77 266 0.0 1.0 0.00 0.06 0.06 73 1002.8
20260509002042 78 266 0.0 1.0 0.00 0.06 0.06 71 1002.7
20260509001542 79 266 0.0 0.0 0.00 0.06 0.06 72 1002.8
20260509001042 78 266 0.0 1.0 0.00 0.06 0.06 72 1002.7
20260509000542 78 266 0.0 1.0 0.00 0.06 0.06 72 1002.8
20260509000042 78 53 0.0 1.0 0.00 0.06 0.06 73 1002.8
20260508235540 77 53 0.0 1.0 0.00 0.06 0.06 74 1002.8
20260508235039 77 271 0.0 5.0 0.00 0.06 0.06 74 1002.9
20260508234541 77 271 0.0 6.0 0.00 0.06 0.06 75 1002.8
20260508234041 77 235 2.0 6.0 0.00 0.06 0.06 72 1002.7
20260508233539 78 224 2.0 6.0 0.00 0.06 0.06 70 1002.8
20260508233039 79 245 0.0 3.0 0.00 0.06 0.06 72 1002.8
20260508232538 79 240 0.0 2.0 0.00 0.06 0.06 71 1002.9
20260508232038 78 239 0.0 4.0 0.00 0.06 0.06 72 1002.9
20260508231538 78 229 1.0 4.0 0.00 0.06 0.06 73 1002.8
20260508231038 77 250 1.0 7.0 0.00 0.06 0.06 73 1002.9
20260508230537 77 245 2.0 7.0 0.00 0.06 0.06 72 1002.9
20260508230042 77 176 0.0 5.0 0.00 0.06 0.06 73 1002.8
20260508225537 77 236 2.0 7.0 0.00 0.06 0.06 73 1002.8
20260508225037 77 216 2.0 7.0 0.00 0.06 0.06 72 1002.9
20260508224537 78 224 2.0 6.0 0.00 0.06 0.06 73 1002.8
20260508224035 77 188 0.0 8.0 0.00 0.06 0.06 76 1003.0
20260508223537 76 159 1.0 8.0 0.00 0.06 0.06 76 1002.9
20260508223035 76 160 3.0 7.0 0.00 0.06 0.06 74 1003.0
20260508222534 76 216 2.0 7.0 0.00 0.06 0.06 73 1003.0
20260508222034 77 163 1.0 7.0 0.00 0.06 0.06 73 1003.2
20260508221533 78 210 3.0 6.0 0.00 0.06 0.06 71 1003.2
20260508221034 78 246 0.0 2.0 0.00 0.06 0.06 73 1003.3
20260508220532 77 229 0.0 2.0 0.00 0.06 0.06 76 1003.3
20260508220030 75 29 0.0 1.0 0.00 0.06 0.06 76 1003.4
20260508215531 75 45 0.0 1.0 0.00 0.06 0.06 77 1003.7
20260508215028 75 325 0.0 1.0 0.00 0.06 0.06 79 1003.8
20260508214530 75 48 0.0 2.0 0.00 0.06 0.06 80 1003.9
20260508214026 74 48 0.0 3.0 0.05 0.06 0.06 77 1003.9
20260508213526 74 346 0.0 3.0 0.06 0.06 0.06 78 1003.7
20260508213036 74 234 0.0 3.0 0.06 0.06 0.06 81 1003.7
20260508212525 72 247 0.0 4.0 0.06 0.06 0.06 82 1003.5
20260508212024 71 30 1.0 4.0 0.06 0.06 0.06 84 1003.4
20260508211535 70 306 1.0 4.0 0.06 0.06 0.06 84 1003.4
20260508211024 70 186 1.0 4.0 0.06 0.06 0.06 86 1003.4
20260508210523 69 177 1.0 5.0 0.06 0.06 0.06 86 1003.5
20260508210026 69 261 0.0 3.0 0.06 0.06 0.06 88 1003.4
20260508205522 68 256 0.0 1.0 0.06 0.06 0.06 87 1003.4
20260508205020 68 256 0.0 1.0 0.06 0.06 0.06 85 1003.8
20260508204519 69 79 0.0 2.0 0.06 0.06 0.06 83 1004.3
20260508204017 69 134 0.0 6.0 0.00 0.00 0.00 79 1005.1
20260508203517 69 290 0.0 8.0 0.00 0.00 0.00 77 1005.3
20260508203017 70 240 2.0 8.0 0.00 0.00 0.00 76 1005.1
20260508202517 70 191 1.0 6.0 0.00 0.00 0.00 75 1004.9
20260508202016 70 204 1.0 6.0 0.00 0.00 0.00 74 1005.1
20260508201516 71 231 2.0 7.0 0.00 0.00 0.00 73 1005.4
20260508201016 71 201 3.0 8.0 0.00 0.00 0.00 72 1005.5
20260508200516 72 266 2.0 6.0 0.00 0.00 0.00 70 1005.6
20260508200018 73 333 1.0 6.0 0.00 0.00 0.00 69 1005.6
20260508195515 73 198 2.0 5.0 0.00 0.00 0.00 69 1005.5
20260508195014 73 205 1.0 4.0 0.00 0.00 0.00 71 1005.2
20260508194527 71 179 0.0 7.0 0.00 0.00 0.00 72 1005.1
20260508194013 71 153 4.0 7.0 0.00 0.00 0.00 70 1005.3
20260508193513 71 257 2.0 6.0 0.00 0.00 0.00 71 1005.2
20260508193013 71 182 2.0 6.0 0.00 0.00 0.00 71 1005.4
20260508192518 71 158 1.0 7.0 0.00 0.00 0.00 71 1005.4
20260508192012 71 266 0.0 7.0 0.00 0.00 0.00 71 1005.4
20260508191511 71 191 0.0 7.0 0.00 0.00 0.00 72 1005.6
20260508191011 71 219 1.0 7.0 0.00 0.00 0.00 70 1005.7
20260508190513 71 226 0.0 5.0 0.00 0.00 0.00 69 1005.8
20260508190013 71 203 1.0 6.0 0.00 0.00 0.00 70 1005.8
20260508185509 71 236 0.0 6.0 0.00 0.00 0.00 71 1005.7
20260508185012 71 274 1.0 8.0 0.00 0.00 0.00 71 1005.9
20260508184509 71 240 3.0 8.0 0.00 0.00 0.00 70 1005.9
20260508184008 71 228 2.0 6.0 0.00 0.00 0.00 70 1005.9
20260508183508 71 245 2.0 6.0 0.00 0.00 0.00 69 1006.0
20260508183011 71 243 2.0 6.0 0.00 0.00 0.00 68 1006.2
20260508182507 72 250 3.0 6.0 0.00 0.00 0.00 67 1006.4
20260508182006 73 168 2.0 4.0 0.00 0.00 0.00 67 1006.5
20260508181509 73 28 0.0 6.0 0.00 0.00 0.00 65 1006.6
20260508181006 74 221 2.0 6.0 0.00 0.00 0.00 63 1006.6
20260508180506 74 275 0.0 2.0 0.00 0.00 0.00 64 1006.5
20260508180012 74 42 0.0 3.0 0.00 0.00 0.00 64 1006.5
20260508175505 74 165 0.0 3.0 0.00 0.00 0.00 64 1006.4
20260508175010 74 192 0.0 2.0 0.00 0.00 0.00 66 1006.6
20260508174504 73 122 0.0 1.0 0.00 0.00 0.00 69 1006.5
20260508174003 72 331 0.0 1.0 0.00 0.00 0.00 67 1006.6
20260508173501 73 255 0.0 2.0 0.00 0.00 0.00 66 1006.9
20260508173003 73 255 0.0 2.0 0.00 0.00 0.00 67 1006.9
20260508172501 73 42 0.0 2.0 0.00 0.00 0.00 65 1007.1
20260508172001 74 239 0.0 1.0 0.00 0.00 0.00 65 1007.1
20260508171501 74 239 0.0 2.0 0.00 0.00 0.00 67 1007.1
20260508171101 73 360 0.0 2.0 0.00 0.00 0.00 66 1007.0
20260508170559 73 338 0.0 2.0 0.00 0.00 0.00 65 1007.2
20260508165558 74 29 0.0 4.0 0.00 0.00 0.00 65 1007.3
20260508165058 74 326 0.0 4.0 0.00 0.00 0.00 64 1007.3
20260508164600 73 27 0.0 2.0 0.00 0.00 0.00 69 1007.3
20260508164056 73 205 0.0 3.0 0.00 0.00 0.00 68 1007.3
20260508163556 72 295 0.0 3.0 0.00 0.00 0.00 68 1007.5
20260508163053 72 144 0.0 3.0 0.00 0.00 0.00 69 1007.7
20260508162553 72 269 0.0 2.0 0.00 0.00 0.00 70 1007.8
20260508162054 71 266 0.0 1.0 0.00 0.00 0.00 71 1007.9
20260508161549 71 264 0.0 1.0 0.00 0.00 0.00 72 1008.2
20260508161049 71 330 0.0 1.0 0.00 0.00 0.00 70 1008.3